Location: Auttagershofen
(48.1940°N, 10.0237°E)
Time: 02:08:54
(UTC+00:00)

Cosmos 1833 Rocket - Pass Details

Date: 18 January 2026
Orbit: 831 x 839 km, 71.0° (Epoch: 6 February)

Event Time Altitude Azimuth Distance (km) Brightness Sun altitude
Exits shadow 04:22:07 18° 191° (S) 1,935 4.5 -26.4°
Drops below altitude 10° 04:23:36 10° 184° (S) 2,437 5.1 -26.1°
Sets 04:26:09 0° 177° (S) 3,366 5.9 -25.7°
